Time,TemperatureF,DewpointF,PressureIn,WindDirection,WindDirectionDegrees,WindSpeedMPH,WindSpeedGustMPH,Humidity,HourlyPrecipIn,Conditions,Clouds,dailyrainin,SoftwareType,DateUTC
2013-01-03 01:43:00,19.0,9.0,-100.00,North,0,3.0,9.0,62,-99.99,,,-99.99,,2013-01-03 07:43:00,
2013-01-03 01:53:00,19.0,9.0,-100.00,North,0,3.0,9.0,62,-99.99,,,-99.99,,2013-01-03 07:53:00,
2013-01-03 02:02:00,19.0,9.0,-100.00,North,0,3.0,9.0,62,-99.99,,,-99.99,,2013-01-03 08:02:00,
2013-01-03 04:43:00,23.0,15.0,-100.00,North,0,9.0,11.0,69,-99.99,,,-99.99,,2013-01-03 10:43:00,
2013-01-03 04:53:00,23.0,15.0,-100.00,North,0,9.0,11.0,69,-99.99,,,-99.99,,2013-01-03 10:53:00,
2013-01-03 05:02:00,23.0,15.0,-100.00,North,0,9.0,11.0,69,-99.99,,,-99.99,,2013-01-03 11:02:00,
2013-01-03 09:03:00,27.0,21.0,-100.00,North,0,9.0,13.0,79,-99.99,,,-99.99,,2013-01-03 15:03:00,
2013-01-03 09:12:00,27.0,21.0,-100.00,North,0,9.0,13.0,79,-99.99,,,-99.99,,2013-01-03 15:12:00,
2013-01-03 09:22:00,27.0,21.0,-100.00,North,0,9.0,13.0,79,-99.99,,,-99.99,,2013-01-03 15:22:00,
2013-01-03 09:43:00,28.0,22.0,-100.00,North,0,8.0,12.0,79,-99.99,,,-99.99,,2013-01-03 15:43:00,
2013-01-03 09:53:00,28.0,22.0,-100.00,North,0,8.0,12.0,79,-99.99,,,-99.99,,2013-01-03 15:53:00,
2013-01-03 10:03:00,28.0,22.0,-100.00,North,0,8.0,12.0,79,-99.99,,,-99.99,,2013-01-03 16:03:00,
2013-01-03 15:50:00,29.0,21.0,-100.00,North,0,11.0,14.0,72,-99.99,,,-99.99,,2013-01-03 21:50:00,
2013-01-03 16:03:00,29.0,21.0,-100.00,North,0,11.0,14.0,72,-99.99,,,-99.99,,2013-01-03 22:03:00,
2013-01-03 17:12:00,29.0,18.0,-100.00,North,0,8.0,13.0,63,-99.99,,,-99.99,,2013-01-03 23:12:00,
2013-01-03 17:22:00,29.0,18.0,-100.00,North,0,8.0,13.0,63,-99.99,,,-99.99,,2013-01-03 23:22:00,
2013-01-03 17:33:00,29.0,18.0,-100.00,North,0,8.0,13.0,63,-99.99,,,-99.99,,2013-01-03 23:33:00,
2013-01-03 18:42:00,29.0,18.0,-100.00,North,0,9.0,16.0,63,-99.99,,,-99.99,,2013-01-04 00:42:00,
2013-01-03 18:53:00,29.0,18.0,-100.00,North,0,9.0,16.0,63,-99.99,,,-99.99,,2013-01-04 00:53:00,
2013-01-03 19:02:00,29.0,18.0,-100.00,North,0,9.0,16.0,63,-99.99,,,-99.99,,2013-01-04 01:02:00,
2013-01-03 20:42:00,27.0,17.0,-100.00,North,0,6.0,9.0,67,-99.99,,,-99.99,,2013-01-04 02:42:00,
2013-01-03 20:53:00,27.0,17.0,-100.00,North,0,6.0,9.0,67,-99.99,,,-99.99,,2013-01-04 02:53:00,
2013-01-03 21:02:00,27.0,17.0,-100.00,North,0,6.0,9.0,67,-99.99,,,-99.99,,2013-01-04 03:02:00,
2013-01-03 22:32:00,26.0,18.0,-100.00,North,0,5.0,10.0,70,-99.99,,,-99.99,,2013-01-04 04:32:00,
2013-01-03 22:42:00,26.0,18.0,-100.00,North,0,5.0,10.0,70,-99.99,,,-99.99,,2013-01-04 04:42:00,
2013-01-03 22:52:00,26.0,18.0,-100.00,North,0,5.0,10.0,70,-99.99,,,-99.99,,2013-01-04 04:52:00,